     2.11           OBSERVATION DATA    G (GPS)             RINEX VERSION / TYPE
teqc 2010Oct21 OPUS Account 20111027 15:34:51UTC            PGM / RUN BY / DATE
V 1524                                                      MARKER NAME
3001                                                        MARKER NUMBER
CSMIDDLETON NGS                                             OBSERVER / AGENCY
0220269730 TRIMBLE 5700 NP 1.22 / SP 1.22                   REC # / TYPE / VERS
60041226 TRM41249.00 NONE                                   ANT # / TYPE
  -761288.5421 -5536245.0804  3064136.1491                  APPROX POSITION XYZ
        2.0010        0.0000        0.0000                  ANTENNA: DELTA H/E/N
     1     1                                                WAVELENGTH FACT L1/2
     5    L1    L2    C1    P1    P2                        # / TYPES OF OBSERV
    15                                                      LEAP SECONDS
  2011     8    15     0     0   30.0000000     GPS         TIME OF FIRST OBS
                                                            END OF HEADER
 11  8 15  0  0 30.0000000  0  8G12G10G28G17G05G04G09G02
 -19636144.42657 -15285563.14855  22588666.1804                   22588664.6134
 -33720907.00057 -26261204.84255  21323742.1884                   21323741.5904
 -77311106.00056 -60228237.80953  23862277.2894                   23862278.0514
 -67116256.71957 -52281733.45755  22464665.6094                   22464664.2584
 -10275422.50057  -7991317.15854  23570097.3754                   23570098.5394
 -56596905.34458 -44083850.59556  20656354.1484                   20656353.1804
 -30396799.13357 -23669511.74554  22648051.5784                   22648051.8834
 -41948185.68058 -32670578.78856  20839847.9534                   20839844.9144
 11  8 15  0  1  0.0000000  0  8G12G10G28G17G05G04G09G02
 -19791863.17647 -15406902.41645  22559033.6484                   22559032.3634
 -33839341.50447 -26353491.43845  21301204.7734                   21301203.8714
 -77284121.30946 -60207210.80142  23867412.8134                   23867412.2774
 -67143470.52347 -52302939.04245  22459486.7344                   22459485.3674
 -10450078.97347  -8127412.96644  23536860.6724                   23536861.9804
 -56608562.68748 -44092934.24546  20654135.8284                   20654134.7934
 -30411788.57047 -23681191.85944  22645198.9304                   22645199.7974
 -42045093.13348 -32746091.05746  20821407.3054                   20821403.8874
 11  8 15  0  1 30.0000000  0  8G12G10G28G17G05G04G09G02
 -19947332.99647 -15528047.72945  22529448.9844                   22529447.0744
 -33957239.10947 -26445359.67145  21278770.0474                   21278768.7544
 -77256876.94946 -60185981.54742  23872596.8284                   23872596.2934
 -67170555.34047 -52324044.12545  22454332.3754                   22454331.6054
 -10624652.34447  -8263444.00544  23503640.5554                   23503642.2074
 -56619876.12548 -44101749.94146  20651982.9384                   20651982.3204
 -30426326.95347 -23692520.50244  22642432.6644                   22642432.9924
 -42141620.03548 -32821306.80046  20803038.6724                   20803035.5084
 11  8 15  0  2  0.0000000  0  8G12G10G28G17G05G04G09G02
 -20102552.30947 -15648997.80345  22499911.4924                   22499909.7814
 -34074598.57047 -26536808.57645  21256437.1094                   21256436.1024
 -77229375.59446 -60164551.94543  23877830.1094                   23877830.5474
 -67197511.55547 -52345048.97245  22449202.7894                   22449202.0554
 -10799140.85247  -8399408.93544  23470436.8674                   23470437.7464
 -56630849.19947 -44110300.40646  20649894.7114                   20649894.0234
 -30440418.17647 -23703500.68944  22639751.0944                   22639751.5274
 -42237767.88748 -32896227.17746  20784742.7504                   20784739.1914
 11  8 15  0  2 30.0000000  0  8G12G10G28G17G05G04G09G02
 -20257520.59447 -15769752.28745  22470421.7584                   22470420.6804
 -34191419.61747 -26627837.93145  21234206.3594                   21234205.4264
 -77201621.72746 -60142925.68742  23883111.9384                   23883112.3054
 -67224340.82847 -52365954.90545  22444097.8594                   22444097.1804
 -10973543.48447  -8535306.96044  23437249.4694                   23437250.3284
 -56641486.48448 -44118589.21246  20647870.5704                   20647869.5984
 -30454067.31647 -23714136.45044  22637153.7194                   22637154.4964
 -42333539.25048 -32970854.19046  20766517.6884                   20766514.3674
 11  8 15  0  3  0.0000000  0  8G12G10G28G17G05G04G09G02
 -20412238.59047 -15890311.70945  22440980.2814                   22440978.7344
 -34307703.27047 -26718448.54245  21212078.5704                   21212078.1644
 -77173620.48446 -60121106.71142  23888439.3914                   23888440.5704
 -67251045.82847 -52386764.03145  22439015.9844                   22439014.7274
 -11147860.87547  -8671138.53344  23404077.4614                   23404078.2584
 -56651793.70748 -44126620.83146  20645909.2584                   20645908.0704
 -30467281.36747 -23724433.16544  22634639.2424                   22634639.9144
 -42428938.22348 -33045191.03446  20748363.6724                   20748360.5434
 11  8 15  0  3 30.0000000  0  8G12G10G28G17G05G04G09G02
 -20566697.44547 -16010669.23845  22411587.6884                   22411586.2934
 -34423440.66047 -26808633.49945  21190054.5004                   21190054.0394
 -77145367.36746 -60099091.43742  23893816.5004                   23893817.7274
 -67277619.71147 -52407470.97545  22433959.3914                   22433957.8754
 -11322083.78547  -8806896.46944  23370924.0164                   23370924.7034
 -56661766.96548 -44134392.22046  20644011.1884                   20644010.2814
 -30480056.84047 -23734388.09044  22632208.2894                   22632208.8164
 -42523958.96948 -33119233.14046  20730281.8364                   20730278.9144
 11  8 15  0  4  0.0000000  0  8G12G10G28G17G05G04G09G02
 -20720900.26647 -16130827.24645  22382243.7194                   22382241.9964
 -34538634.76647 -26898395.11245  21168133.8134                   21168133.4654
 -77116869.84446 -60076885.75143  23899239.5554                   23899240.8914
 -67304067.50847 -52428079.67945  22428926.1644                   22428924.6844
 -11496214.86347  -8942582.91644  23337787.3134                   23337788.4614
 -56671413.99648 -44141909.41046  20642175.7504                   20642174.7194
 -30492401.87147 -23744007.66044  22629859.0474                   22629859.5984
 -42618607.13748 -33192984.94246  20712271.0234                   20712267.9734
 11  8 15  0  4 30.0000000  0  8G12G10G28G17G05G04G09G02
 -20874839.57447 -16250779.91945  22352949.8364                   22352948.6454
 -34653278.91447 -26987728.19145  21146317.1564                   21146317.2194
 -77088125.01646 -60054487.30343  23904710.3984                   23904711.1294
 -67330383.94547 -52448586.04245  22423918.4614                   22423916.9654
 -11670246.27047  -9078191.69844  23304670.5314                   23304671.5474
 -56680732.60948 -44149170.68546  20640402.8364                   20640401.6174
 -30504315.14147 -23753290.76244  22627592.4774                   22627592.4454
 -42712878.68047 -33266443.26246  20694332.0314                   20694328.7034
 11  8 15  0  5  0.0000000  0  8G12G10G28G17G05G04G09G02
 -21028514.89547 -16370526.89045  22323706.5474                   22323705.2734
 -34767372.96147 -27076632.62445  21124606.1024                   21124605.0904
 -77059136.71546 -60031899.14843  23910226.7894                   23910227.3634
 -67356570.18447 -52468990.94145  22418935.6334                   22418934.3594
 -11844177.36346  -9213722.29244  23271572.6644                   23271572.3134
 -56689727.30148 -44156179.55146  20638691.0474                   20638690.1484
 -30515801.84847 -23762241.50244  22625406.5314                   22625406.9144
 -42806776.31648 -33339610.24046  20676463.5704                   20676459.9454
 11  8 15  0  5 30.0000000  0  8G12G10G28G17G05G04G09G02
 -21181919.91047 -16490063.22645  22294514.5864                   22294513.2114
 -34880910.98047 -27165103.77045  21103000.8914                   21102999.4884
 -77029903.60946 -60009120.21543  23915789.1414                   23915790.6914
 -67382622.44147 -52489291.41145  22413977.6884                   22413976.7344
 -12018001.71946  -9349169.74544  23238494.5474                   23238494.9184
 -56698396.63348 -44162934.88846  20637041.1334                   20637040.0354
 -30526861.55946 -23770859.48944  22623301.6254                   22623302.1604
 -42900296.91448 -33412483.39346  20658667.1334                   20658663.9574
 11  8 15  0  6  0.0000000  0  8G12G10G28G17G05G04G09G02
 -21335057.99247 -16609391.55945  22265373.5164                   22265372.3324
 -34993896.42247 -27253144.35045  21081500.1724                   21081499.0594
 -77000432.78146 -59986156.06943  23921397.7034                   23921399.4184
 -67408545.58247 -52509491.29545  22409045.1414                   22409043.8594
 -12191721.35546  -9484535.52944  23205436.3054                   23205437.0984
 -56706748.56248 -44169442.91246  20635452.1644                   20635450.7854
 -30537502.84447 -23779151.42944  22621277.5704                   22621277.6644
 -42993446.82848 -33485067.74046  20640941.2504                   20640937.9694
 11  8 15  0  6 30.0000000  0  8G12G10G28G17G05G04G09G02
 -21487921.65647 -16728506.05145  22236284.3594                   22236282.9574
 -35106322.34847 -27340748.93345  21060105.9614                   21060105.3914
 -76970721.50446 -59963004.55343  23927051.8594                   23927053.3284
 -67434334.02047 -52529586.22145  22404137.3204                   22404136.1954
 -12365329.68046  -9619814.61144  23172399.7814                   23172400.9224
 -56714780.91448 -44175701.90646  20633923.2424                   20633922.1884
 -30547724.12947 -23787116.14744  22619331.0474                   22619332.1684
 -43086221.51648 -33557359.68546  20623286.6564                   20623283.8874
 11  8 15  0  7  0.0000000  0  8G12G10G28G17G05G04G09G02
 -21640509.33647 -16847405.50845  22207247.8204                   22207246.0984
 -35218187.41047 -27427916.49245  21038819.0164                   21038817.9414
 -76940772.95346 -59939668.11243  23932750.8914                   23932752.2584
 -67459988.55147 -52549576.82045  22399255.7194                   22399254.4304
 -12538823.89546  -9755004.81844  23139385.5394                   23139385.7774
 -56722497.09848 -44181714.53546  20632454.7664                   20632454.1684
 -30557529.32847 -23794756.57444  22617465.8834                   22617466.4574
 -43178622.96148 -33629360.79646  20605703.1484                   20605700.3324
 11  8 15  0  7 30.0000000  0  8G12G10G28G17G05G04G09G02
 -20217392.34447 -15738483.12845  22478057.8834                   22478056.4964
 -33754064.79747 -26287041.71045  21317432.2274                   21317431.3674
 -75335169.29346 -58688548.46142  24238287.0004                   24238287.5514
 -65910086.85547 -51341861.24545  22694192.4224                   22694191.2464
 -11136774.25847  -8662498.45344  23406186.0474                   23406186.7234
 -55154478.11748 -42959881.56646  20930839.1564                   20930838.2154
 -28991500.57847 -22574474.49944  22915471.3754                   22915471.7544
 -41695227.53948 -32473468.24446  20887984.4064                   20887981.2074
 11  8 15  0  8  0.0000000  0  8G12G10G28G17G05G04G09G02
 -20369417.22347 -15856944.03745  22449128.2034                   22449127.0394
 -33864798.63747 -26373327.81445  21296360.6414                   21296359.7504
 -75304748.81646 -58664844.29342  24244076.5164                   24244074.9614
 -65935468.60947 -51361639.29445  22689361.8834                   22689361.8134
 -11310028.95347  -8797502.00844  23373216.4304                   23373217.2504
 -55161565.78148 -42965404.44546  20929490.3364                   20929489.4884
 -29000480.42247 -22581471.84944  22913762.5394                   22913762.9264
 -41786881.01647 -32544886.51846  20870542.7974                   20870539.8714
 11  8 15  0  8 30.0000000  0  8G12G10G28G17G05G04G09G02
 -20521155.18747 -15975181.39245  22420253.4534                   22420252.2274
 -33974962.13348 -26459169.48745  21275396.6724                   21275396.2504
 -75274094.07445 -58640957.55142  24249909.1334                   24249908.9734
 -65960711.84847 -51381309.41145  22684558.5394                   22684557.5124
 -11483158.02347  -8932407.66844  23340271.3054                   23340272.1564
 -55168341.32847 -42970684.09946  20928200.5634                   20928200.1994
 -29009050.69946 -22588150.01544  22912131.0784                   22912132.0784
 -41878159.98447 -32616012.97246  20853173.0474                   20853169.9224
 11  8 15  0  9  0.0000000  0  8G12G10G28G17G05G04G09G02
 -20672606.70347 -16093195.51745  22391433.3754                   22391432.1254
 -34084556.34847 -26544567.55045  21254541.4924                   21254541.3204
 -75243209.78145 -58616891.99642  24255785.8054                   24255786.6764
 -65985818.29347 -51400872.92645  22679781.2664                   22679780.0984
 -11656161.00847  -9067215.09144  23307350.2344                   23307350.6604
 -55174810.08648 -42975724.70746  20926969.8754                   20926968.7424
 -29017217.30146 -22594513.66044  22910577.8134                   22910577.9924
 -41969067.73048 -32686850.17346  20835873.9144                   20835870.4184
 11  8 15  0  9 30.0000000  0  8G12G10G28G17G05G04G09G02
 -20823770.35247 -16210985.34845  22362667.5084                   22362666.6174
 -34193580.08247 -26629521.08645  21233795.2814                   21233794.3484
 -75212098.73445 -58592649.73442  24261706.0234                   24261707.3594
 -66010788.73847 -51420330.46245  22675029.0554                   22675028.6214
 -11829036.63347  -9201923.26444  23274453.0314                   23274453.3014
 -55180975.30948 -42980528.80646  20925796.6094                   20925795.9494
 -29024984.77747 -22600566.27544  22909099.9614                   22909100.1724
 -42059606.18748 -32757399.60646  20818645.0084                   20818641.8634
 11  8 15  0 10  0.0000000  0  8G12G10G28G17G05G04G09G02
 -20974637.82447 -16328544.38945  22333958.2974                   22333957.7424
 -34302026.00847 -26714024.39545  21213158.7974                   21213157.9924
 -75180757.51646 -58568228.13643  24267670.8674                   24267672.0164
 -66035617.01647 -51439677.21645  22670304.5554                   22670303.9144
 -12001776.14547  -9336525.38044  23241581.3284                   23241581.5394
 -55186833.95748 -42985094.00446  20924682.1334                   20924681.1024
 -29032350.87947 -22606306.12744  22907698.1804                   22907698.8054
 -42149770.39548 -32827657.40646  20801487.4304                   20801484.5514
 11  8 15  0 10 30.0000000  0  8G12G10G28G17G05G04G09G02
 -21125209.63747 -16445873.03845  22305305.7894                   22305304.7894
 -34409894.62947 -26798077.83745  21192631.7664                   21192631.0434
 -75149190.95746 -58543630.91842  24273678.1174                   24273679.0204
 -66060305.41447 -51458914.98045  22665606.0704                   22665605.8094
 -12174379.46947  -9471021.37644  23208735.9774                   23208736.8834
 -55192391.16048 -42989424.30146  20923623.8204                   20923623.5044
 -29039321.19547 -22611737.62544  22906371.2504                   22906371.8794
 -42239563.91048 -32897626.37046  20784400.2344                   20784397.1054
 11  8 15  0 11  0.0000000  0  8G12G10G28G17G05G04G09G02
 -21275481.38347 -16562967.88645  22276709.9774                   22276708.9224
 -34517182.16848 -26881678.49245  21172215.6644                   21172214.8284
 -75117399.38746 -58518858.34743  24279727.6254                   24279729.2734
 -66084851.28947 -51478041.69245  22660935.4224                   22660935.4844
 -12346841.96547  -9605407.60644  23175917.1644                   23175917.8094
 -55197647.71147 -42993520.32146  20922623.7734                   20922623.2704
 -29045897.59046 -22616862.14444  22905120.3204                   22905120.5314
 -42328985.72747 -32967305.70146  20767383.9454                   20767380.5514
 11  8 15  0 11 30.0000000  0  8G12G10G28G17G05G04G09G02
 -21425449.52747 -16679826.17045  22248172.1094                   22248170.8204
 -34623886.08647 -26964824.37745  21151910.8284                   21151909.2664
 -75085383.94946 -58493911.35543  24285820.3984                   24285822.3874
 -66109253.67647 -51497056.58245  22656292.4614                   22656291.6414
 -12519159.80147  -9739681.14044  23143126.4844                   23143127.0824
 -55202605.10548 -42997383.25446  20921681.1884                   20921680.2664
 -29052082.48847 -22621681.58944  22903943.3754                   22903944.1994
 -42418035.69548 -33036695.27046  20750437.9384                   20750434.7304
 11  8 15  0 12  0.0000000  0  8G12G10G28G17G05G04G09G02
 -21575111.68747 -16796446.02945  22219692.3284                   22219690.9184
 -34730004.22347 -27047513.82445  21131717.1564                   21131716.1054
 -75053146.84846 -58468791.64743  24291954.7424                   24291956.8364
 -66133512.16447 -51515959.34145  22651675.9064                   22651675.2034
 -12691330.01247  -9873839.65544  23110363.3834                   23110363.7194
 -55207265.46148 -43001014.71246  20920794.0394                   20920793.2934
 -29057879.00447 -22626198.42944  22902839.9844                   22902840.7274
 -42506714.36347 -33105795.51046  20733563.3914                   20733559.9804
 11  8 15  0 12 30.0000000  0  8G12G10G28G17G05G04G09G02
 -21724464.30147 -16912824.67545  22191271.3204                   22191269.6414
 -34835534.44947 -27129745.15145  21111635.2114                   21111634.4264
 -75020689.00046 -58443499.87943  24298131.6094                   24298133.1334
 -66157625.10547 -51534748.66245  22647087.2664                   22647086.9774
 -12863349.16047 -10007880.45244  23077628.7974                   23077628.9454
 -55211630.53548 -43004416.09346  20919963.4144                   20919962.4104
 -29063289.89146 -22630414.77944  22901810.0704                   22901811.2384
 -42595021.80948 -33174606.49846  20716758.7194                   20716755.8134
 11  8 15  0 13  0.0000000  0  8G12G10G28G17G05G04G09G02
 -21873504.98447 -17028960.27145  22162910.2034                   22162908.6564
 -34940474.87547 -27211516.88646  21091665.7584                   21091665.2194
 -74988013.05546 -58418038.19243  24304349.1174                   24304351.1024
 -66181592.01247 -51553424.22945  22642526.5394                   22642525.5204
 -13035213.86347 -10141800.89644  23044924.3444                   23044924.6094
 -55215703.05547 -43007589.50246  20919188.4384                   20919187.3954
 -29068318.25046 -22634333.02644  22900853.9454                   22900854.5594
 -42682958.88348 -33243128.87846  20700025.1954                   20700021.6134
 11  8 15  0 13 30.0000000  0  7G12G10G17G05G04G09G02
 -22022226.76647 -17144847.35845  22134608.9844                   22134607.8364
 -35044818.55947 -27292823.62745  21071809.7344                   21071808.9024
 -66205407.62547 -51571981.88945  22637994.7194                   22637994.0084
 -13206916.85947 -10275595.35644  23012250.3204                   23012250.6994
 -55219480.64148 -43010533.09446  20918469.6094                   20918468.2894
 -29072962.80946 -22637952.22444  22899970.1094                   22899970.7624
 -42770521.83248 -33311359.72546  20683362.0084                   20683359.0124
 11  8 15  0 14  0.0000000  0  7G12G10G17G05G04G09G02
 -22170629.08247 -17260485.53445  22106368.7194                   22106367.2704
 -35148565.97347 -27373665.76345  21052067.3674                   21052066.7814
 -66229073.61347 -51590422.96445  22633491.7034                   22633491.1334
 -13378457.59447 -10409263.36944  22979607.1414                   22979607.7034
 -55222967.80548 -43013250.38146  20917805.6804                   20917804.4884
 -29077229.02746 -22641276.66144  22899158.3834                   22899159.5124
 -42857713.39147 -33379301.19446  20666770.3284                   20666766.9614
 11  8 15  0 14 30.0000000  0  7G12G10G17G05G04G09G02
 -22318694.77747 -17375861.38345  22078192.8204                   22078191.8874
 -35251700.91447 -27454030.62946  21032441.0864                   21032440.3754
 -66252575.08247 -51608735.83145  22629018.8524                   22629018.4104
 -13549818.56247 -10542791.28244  22946998.2974                   22946998.3714
 -55226152.42248 -43015731.92246  20917199.9924                   20917198.5354
 -29081105.75047 -22644297.51144  22898420.4614                   22898421.5474
 -42944519.86748 -33446942.58146  20650251.4304                   20650248.1954
 11  8 15  0 15  0.0000000  0  7G12G10G17G05G04G09G02
 -22466414.01247 -17490967.27845  22050083.1484                   22050081.5554
 -35354214.15647 -27533911.06045  21012933.4694                   21012932.6334
 -66275903.58247 -51626913.90145  22624579.8674                   22624579.2664
 -13720989.23447 -10676170.92944  22914425.3754                   22914425.4844
 -55229029.50448 -43017973.83146  20916652.5004                   20916651.5354
 -29084588.88347 -22647011.70944  22897758.2034                   22897758.2114
 -43030934.64548 -33514278.75946  20633807.3284                   20633803.8834
 11  8 15  0 15 30.0000000  0  7G12G10G17G05G04G09G02
 -22613785.30547 -17605802.02545  22022038.9304                   22022037.9414
 -35456105.13747 -27613306.61646  20993544.4454                   20993543.5594
 -66299060.38747 -51644958.17145  22620172.9774                   22620173.0984
 -13891968.00047 -10809401.03445  22881889.0784                   22881889.6024
 -55231602.67648 -43019978.91346  20916163.0164                   20916162.2344
 -29087683.08647 -22649422.86344  22897168.8204                   22897169.9574
 -43116959.59048 -33581311.15646  20617437.0234                   20617433.8594
 11  8 15  0 16  0.0000000  0  7G12G10G17G05G04G09G02
 -22760805.76647 -17720363.41045  21994062.2114                   21994060.9454
 -35557371.58247 -27692215.51245  20974274.0084                   20974272.9494
 -66322043.66047 -51662867.23345  22615799.7664                   22615799.0904
 -14062751.12547 -10942478.70044  22849390.0944                   22849390.6804
 -55233873.40648 -43021748.32746  20915730.8914                   20915729.8364
 -29090390.71947 -22651532.75644  22896653.9844                   22896654.6374
 -43202595.03548 -33648040.05846  20601141.8914                   20601138.2624
 11  8 15  0 16 30.0000000  0  7G12G10G17G05G04G09G02
 -22907470.39847 -17834647.52245  21966152.7424                   21966151.5434
 -35658009.30947 -27770634.48945  20955123.5784                   20955122.4384
 -66344851.05947 -51680639.25145  22611459.8834                   22611459.2664
 -14233333.50047 -11075399.91845  22816929.1884                   22816929.6294
 -55235842.05148 -43023282.35046  20915356.2114                   20915355.1214
 -29092713.08247 -22653342.45344  22896211.9774                   22896212.3524
 -43287839.51247 -33714464.30846  20584919.8284                   20584916.5124
 11  8 15  0 17  0.0000000  0  7G12G10G17G05G04G09G02
 -23053782.07047 -17948656.60645  21938310.1644                   21938309.3984
 -35758022.27047 -27848566.65545  20936091.6414                   20936090.7464
 -66367487.27747 -51698277.90745  22607153.1644                   22607151.7194
 -14403717.62947 -11208166.69544  22784506.4384                   22784506.6524
 -55237516.30948 -43024586.97745  20915037.8134                   20915036.8324
 -29094658.84847 -22654858.69644  22895842.0314                   22895842.4734
 -43372699.26647 -33780588.77546  20568771.5864                   20568768.2154
 11  8 15  0 17 30.0000000  0  7G12G10G17G05G04G09G02
 -23199736.18447 -18062387.06245  21910536.7114                   21910534.9064
 -35857406.84847 -27926009.18345  20917179.2274                   20917178.3244
 -66389949.90647 -51715781.28545  22602877.8444                   22602877.2464
 -14573898.66847 -11340775.20945  22752121.4304                   22752121.9144
 -55238896.70348 -43025662.61545  20914775.1414                   20914774.2344
 -29096229.48447 -22656082.63544  22895543.4694                   22895543.9804
 -43457173.28948 -33846412.68046  20552697.1484                   20552693.3134
 11  8 15  0 18  0.0000000  0  7G12G10G17G05G04G09G02
 -23345334.81647 -18175840.53445  21882830.0394                   21882828.5744
 -35956165.66047 -28002964.07445  20898386.1804                   20898385.2814
 -66412242.50847 -51733152.17845  22598635.6954                   22598635.4574
 -14743878.04347 -11473226.57244  22719775.5944                   22719775.8484
 -55239989.75048 -43026514.36145  20914567.3674                   20914565.9694
 -29097432.43747 -22657020.05144  22895314.3444                   22895314.9964
 -43541266.50448 -33911939.85346  20536694.2504                   20536691.3524
 11  8 15  0 18 30.0000000  0  7G12G10G17G05G04G09G02
 -23490573.85247 -18289013.78345  21855191.8594                   21855190.5514
 -36054295.84447 -28079429.12845  20879712.4774                   20879711.7154
 -66434363.19147 -51750389.11445  22594426.2194                   22594426.4574
 -14913651.14547 -11605517.25244  22687468.9534                   22687469.1454
 -55240796.48448 -43027142.99046  20914413.4844                   20914412.5904
 -29098270.14547 -22657672.85144  22895154.0474                   22895155.6374
 -43624978.71147 -33977170.13046  20520764.5944                   20520761.0124
 11  8 15  0 19  0.0000000  0  7G12G10G17G05G04G09G02
 -22060028.23447 -17174302.88945  22127415.3444                   22127414.3984
 -34576374.76247 -26927802.29545  21160951.4614                   21160950.4104
 -64880892.81647 -50539892.74645  22890042.0704                   22890041.6724
 -13507791.82047 -10510042.33545  22954995.2504                   22954995.2664
 -53665901.23048 -41799951.89846  21214106.2114                   21214105.0744
 -27523327.85947 -21430445.18744  23194855.9924                   23194857.2234
 -42132889.76248 -32814503.39746  20804699.2894                   20804696.4414
 11  8 15  0 19 30.0000000  0  7G12G10G17G05G04G09G02
 -22204542.37947 -17286911.30445  22099915.2734                   22099913.9414
 -34673244.96547 -27003285.54545  21142518.0474                   21142516.9144
 -64902669.85547 -50556861.89045  22885898.0234                   22885897.5594
 -13677145.87147 -10642006.45745  22922767.5634                   22922768.0514
 -53666144.34048 -41800141.34046  21214059.8524                   21214058.7814
 -27523446.67647 -21430537.81444  23194834.0704                   23194834.3014
 -42215843.67647 -32879142.80946  20788914.2814                   20788910.8714
 11  8 15  0 20  0.0000000  0  7G12G10G17G05G04G09G02
 -22348686.49247 -17399231.36545  22072486.1414                   22072484.2114
 -34769479.15247 -27078273.20545  21124205.3984                   21124204.0664
 -64924270.41047 -50573693.54245  22881787.1804                   22881787.0434
 -13846282.06247 -10773800.80745  22890582.0704                   22890582.4884
 -53666105.28948 -41800110.91146  21214067.4144                   21214066.6914
 -27523207.44547 -21430351.44844  23194879.9224                   23194880.2384
 -42298416.81248 -32943485.50346  20773200.9144                   20773197.3984
 11  8 15  0 20 30.0000000  0  7G12G10G17G05G04G09G02
 -22492459.98847 -17511262.66145  22045126.7194                   22045125.0744
 -34865077.60948 -27152765.49745  21106013.0944                   21106012.0944
 -64945695.68747 -50590388.60745  22877710.6094                   22877710.1414
 -14015199.25847 -10905424.48645  22858438.0234                   22858438.2704
 -53665788.27348 -41799863.89646  21214127.5864                   21214126.8484
 -27522615.13347 -21429890.00744  23194991.8834                   23194992.6174
 -42380610.85547 -33007532.80046  20757559.7034                   20757556.3634
 11  8 15  0 21  0.0000000  0  7G12G10G17G05G04G09G02
 -22635858.80947 -17623001.97445  22017838.4924                   22017837.7624
 -34960037.47748 -27226760.18345  21087942.9534                   21087942.1884
 -64966943.91047 -50606945.69645  22873667.4224                   22873666.3954
 -14183893.19947 -11036874.22544  22826336.3364                   22826337.3164
 -53665194.14848 -41799400.94446  21214240.7274                   21214240.0004
 -27521671.79747 -21429154.96944  23195172.0554                   23195172.3984
 -42462425.40247 -33071284.38446  20741991.0314                   20741987.6484
 11  8 15  0 21 30.0000000  0  7G12G10G17G05G04G09G02
 -22778881.68047 -17734448.33445  21990622.5004                   21990620.9884
 -35054358.59048 -27300257.11645  21069994.4064                   21069993.3404
 -64988016.01247 -50623365.57745  22869657.4774                   22869656.3634
 -14352362.62947 -11168149.03245  22794278.5314                   22794278.8324
 -53664326.80548 -41798725.09746  21214405.9144                   21214405.0044
 -27520382.31647 -21428150.24644  23195417.4844                   23195418.1174
 -42543862.79347 -33134742.10346  20726493.7114                   20726490.2664
 11  8 15  0 22  0.0000000  0  7G12G10G17G05G04G09G02
 -22921525.58647 -17845599.42745  21963477.8524                   21963476.7114
 -35148039.02747 -27373254.85145  21052167.8444                   21052166.3554
 -65008910.25046 -50639646.84645  22865681.4304                   22865680.6134
 -14520603.50847 -11299245.73745  22762262.3834                   22762262.7464
 -53663187.65248 -41797837.46046  21214622.6644                   21214622.1294
 -27518748.79347 -21426877.44144  23195728.3524                   23195728.6214
 -42624923.53947 -33197906.31946  20711068.6954                   20711065.2734
 11  8 15  0 22 30.0000000  0  7G12G10G17G05G04G09G02
 -23063786.00447 -17956451.67745  21936406.3834                   21936405.3014
 -35241075.05947 -27445750.45745  21034463.2814                   21034462.4264
 -65029624.18446 -50655787.62045  22861739.6024                   22861739.0274
 -14688610.93747 -11430160.53245  22730291.6954                   22730292.2074
 -53661777.16848 -41796738.39546  21214890.8914                   21214890.2304
 -27516773.16846 -21425338.04044  23196103.6484                   23196105.0594
 -42705606.28148 -33260775.99846  20695715.4224                   20695712.0864
 11  8 15  0 23  0.0000000  0  7G12G10G17G05G04G09G02
 -23205663.73047 -18067005.73645  21909408.3594                   21909407.1884
 -35333468.96148 -27517745.67845  21016881.1804                   21016880.0984
 -65050161.07447 -50671790.43845  22857831.4614                   22857831.0044
 -14856385.43447 -11560893.85345  22698365.7194                   22698365.3594
 -53660101.25448 -41795432.49446  21215209.6174                   21215209.4104
 -27514462.37946 -21423537.51144  23196543.8284                   23196545.0314
 -42785915.69548 -33323354.75246  20680432.8444                   20680429.3444
 11  8 15  0 23 30.0000000  0  7G12G10G17G05G04G09G02
 -23347154.01247 -18177257.89645  21882484.2034                   21882482.1994
 -35425217.40648 -27589237.97445  20999422.1804                   20999420.8714
 -65070517.70346 -50687652.79944  22853957.7734                   22853957.5084
 -15023922.05947 -11691441.78345  22666484.4924                   22666484.0554
 -53658159.81248 -41793919.69545  21215579.1254                   21215578.5434
 -27511817.78946 -21421476.82044  23197047.2974                   23197048.1564
 -42865850.48847 -33385641.60846  20665221.5944                   20665218.4184
 11  8 15  0 24  0.0000000  0  7G12G10G17G05G04G09G02
 -23488255.68047 -18287207.22545  21855632.5784                   21855631.2774
 -35516320.00848 -27660226.99646  20982085.7974                   20982084.4654
 -65090694.89546 -50703375.34544  22850118.2424                   22850117.5474
 -15191218.41047 -11821802.53845  22634648.5784                   22634648.9734
 -53655956.23847 -41792202.64445  21215998.5314                   21215998.2704
 -27508843.54746 -21419159.32443  23197612.8204                   23197614.2624
 -42945412.28147 -33447637.81446  20650081.7734                   20650078.0634
 11  8 15  0 24 30.0000000  0  7G12G10G17G05G04G09G02
 -23628962.57847 -18396848.94645  21828856.8984                   21828855.6174
 -35606772.30147 -27730709.28145  20964873.4774                   20964872.1724
 -65110688.60246 -50718954.87644  22846313.8204                   22846313.1254
 -15358268.56647 -11951971.40145  22602859.4774                   22602860.1914
 -53653489.50448 -41790280.51945  21216468.0394                   21216467.4884
 -27505539.74646 -21416584.98444  23198241.6414                   23198242.8094
 -43024599.01247 -33509341.75546  20635013.1484                   20635009.7544
 11  8 15  0 25  0.0000000  0  7G12G10G17G05G04G09G02
 -23769274.16047 -18506182.62945  21802156.6564                   21802155.3324
 -35696574.13348 -27800684.70745  20947784.3054                   20947783.5704
 -65130499.77346 -50734392.20644  22842543.4694                   22842542.7504
 -15525071.40647 -12081947.54745  22571118.5164                   22571118.9344
 -53650763.30948 -41788156.22945  21216986.7894                   21216986.3324
 -27501911.33646 -21413757.70544  23198932.5164                   23198933.6604
 -43103412.99647 -33570755.24646  20620015.1884                   20620011.4924
 11  8 15  0 25 30.0000000  0  7G12G10G17G05G04G09G02
 -23909187.93047 -18615206.32745  21775531.8834                   21775530.4534
 -35785725.07847 -27870152.97845  20930819.4534                   20930818.4344
 -65150128.20746 -50749687.12944  22838808.4694                   22838807.2074
 -15691624.12947 -12211728.82345  22539424.6254                   22539424.6724
 -53647780.51247 -41785832.00545  21217554.2664                   21217553.4884
 -27497962.40647 -21410680.74144  23199683.9384                   23199684.9264
 -43181855.79747 -33631879.50846  20605088.2274                   20605084.3284
 11  8 15  0 26  0.0000000  0  7G12G10G17G05G04G09G02
 -24048703.35247 -18723919.63646  21748983.4224                   21748981.9844
 -35874225.76247 -27939114.54345  20913978.4304                   20913977.2074
 -65169575.33247 -50764840.77944  22835106.9774                   22835106.9224
 -15857925.46147 -12341314.20345  22507778.5784                   22507778.3094
 -53644545.35947 -41783311.14045  21218169.7344                   21218169.3794
 -27493698.30546 -21407358.14944  23200495.5164                   23200496.0474
 -43259930.30547 -33692716.78446  20590230.6884                   20590227.4654
